GW4746 Weather Reports


Display with metric or nautical units.
time (UTC)temp
F
wind
direction
speed
MPH
gust
MPH
rain 1hr
in
rain 24hr
in
rain mn
in
humidity
%
barometer
mb
20260901074523 82 113 0.0 3.0 0.00 0.00 0.00 51 1017.0
20260901073030 83 179 0.0 4.0 0.00 0.00 0.00 49 1016.9
20260901071512 83 110 2.0 5.0 0.00 0.00 0.00 49 1016.8
20260901070010 84 172 1.0 3.0 0.00 0.00 0.00 48 1017.1
20260901064517 84 170 1.0 3.0 0.00 0.00 0.00 48 1017.1
20260901063032 84 162 1.0 5.0 0.00 0.00 0.00 48 1017.0
20260901061532 84 164 1.0 4.0 0.00 0.00 0.00 47 1017.0
20260901060037 84 162 1.0 4.0 0.00 0.00 0.00 48 1016.8
20260901054523 84 195 1.0 4.0 0.00 0.00 0.00 47 1016.7
20260901053018 84 205 1.0 4.0 0.00 0.00 0.00 47 1016.7
20260901051527 85 133 1.0 5.0 0.00 0.00 0.00 45 1016.6
20260901050031 84 151 1.0 4.0 0.00 0.00 0.00 45 1016.6
20260901044529 85 124 1.0 6.0 0.00 0.00 0.00 45 1016.6
20260901043035 85 169 1.0 5.0 0.00 0.00 0.00 45 1016.6
20260901041522 85 112 2.0 4.0 0.00 0.00 0.00 44 1016.4
20260901040028 86 129 1.0 4.0 0.00 0.00 0.00 44 1016.2
20260901034530 86 122 1.0 6.0 0.00 0.00 0.00 41 1016.3
20260901033039 86 121 1.0 5.0 0.00 0.00 0.00 40 1016.0
20260901031521 87 156 1.0 3.0 0.00 0.00 0.00 40 1015.9
20260901030024 87 90 2.0 5.0 0.00 0.00 0.00 38 1015.7
20260901024530 88 235 0.0 4.0 0.00 0.00 0.00 36 1015.4
20260901023034 88 146 0.0 5.0 0.00 0.00 0.00 36 1015.0
20260901021545 89 135 1.0 4.0 0.00 0.00 0.00 35 1014.8
20260901020018 90 95 1.0 6.0 0.00 0.00 0.00 34 1014.7
20260901014532 90 129 2.0 5.0 0.00 0.00 0.00 33 1014.7
20260901013034 91 100 2.0 5.0 0.00 0.00 0.00 32 1014.5
20260901011532 92 129 2.0 4.0 0.00 0.00 0.00 32 1014.4
20260901010037 92 122 0.0 6.0 0.00 0.00 0.00 31 1014.4
20260901004527 93 94 2.0 10.0 0.00 0.00 0.00 30 1014.3
20260901003029 94 108 6.0 9.0 0.00 0.00 0.00 30 1014.3
20260901001530 95 49 2.0 6.0 0.00 0.00 0.00 30 1014.2
20260901000011 95 99 2.0 6.0 0.00 0.00 0.00 30 1014.1
20260831234518 96 49 4.0 10.0 0.00 0.00 0.00 29 1014.1
20260831233024 95 61 2.0 6.0 0.00 0.00 0.00 30 1014.1
20260831231530 96 121 3.0 6.0 0.00 0.00 0.00 29 1014.1
20260831230028 95 134 1.0 5.0 0.00 0.00 0.00 29 1014.1
20260831224534 96 219 1.0 5.0 0.00 0.00 0.00 30 1014.3
20260831223028 95 89 1.0 4.0 0.00 0.00 0.00 29 1014.3
20260831221534 97 217 1.0 5.0 0.00 0.00 0.00 28 1014.5
20260831220032 97 90 2.0 6.0 0.00 0.00 0.00 27 1014.7
20260831214532 98 100 2.0 5.0 0.00 0.00 0.00 28 1014.8
20260831213040 98 226 2.0 10.0 0.00 0.00 0.00 27 1014.9
20260831211521 96 106 1.0 7.0 0.00 0.00 0.00 31 1015.1
20260831210032 99 120 2.0 5.0 0.00 0.00 0.00 28 1015.3
20260831204526 97 77 2.0 4.0 0.00 0.00 0.00 31 1015.5
20260831203039 97 69 4.0 7.0 0.00 0.00 0.00 31 1015.7
20260831201541 97 85 2.0 7.0 0.00 0.00 0.00 33 1016.0
20260831200022 96 153 1.0 6.0 0.00 0.00 0.00 33 1016.1
20260831194547 98 136 3.0 7.0 0.00 0.00 0.00 31 1016.3
20260831193029 96 67 1.0 8.0 0.00 0.00 0.00 34 1016.4
20260831191512 99 37 3.0 9.0 0.00 0.00 0.00 32 1016.6
20260831190037 95 157 2.0 6.0 0.00 0.00 0.00 35 1016.7
20260831184538 96 304 1.0 5.0 0.00 0.00 0.00 35 1016.9
20260831183034 96 229 2.0 4.0 0.00 0.00 0.00 36 1017.3
20260831181508 97 131 1.0 6.0 0.00 0.00 0.00 35 1017.3
20260831180014 98 283 1.0 6.0 0.00 0.00 0.00 33 1017.6
20260831174537 96 112 2.0 6.0 0.00 0.00 0.00 35 1017.7
20260831173032 96 159 2.0 6.0 0.00 0.00 0.00 38 1017.9
20260831171537 95 92 2.0 8.0 0.00 0.00 0.00 40 1018.1
20260831170032 95 188 3.0 5.0 0.00 0.00 0.00 40 1018.1
20260831164532 94 271 1.0 5.0 0.00 0.00 0.00 41 1018.3
20260831163028 93 170 2.0 6.0 0.00 0.00 0.00 43 1018.3
20260831161525 92 141 3.0 8.0 0.00 0.00 0.00 45 1018.1
20260831160029 92 191 1.0 6.0 0.00 0.00 0.00 46 1018.1
20260831154558 91 139 1.0 5.0 0.00 0.00 0.00 48 1017.9
20260831153012 89 197 2.0 7.0 0.00 0.00 0.00 52 1017.9
20260831151517 88 184 2.0 7.0 0.00 0.00 0.00 53 1018.0
20260831150025 87 203 2.0 5.0 0.00 0.00 0.00 56 1017.9
20260831144528 85 157 1.0 6.0 0.00 0.00 0.00 58 1017.9
20260831143034 85 224 1.0 7.0 0.00 0.00 0.00 59 1017.9
20260831141516 84 162 1.0 3.0 0.00 0.00 0.00 60 1017.9
20260831140023 83 206 1.0 5.0 0.00 0.00 0.00 61 1017.8
20260831134529 81 142 2.0 4.0 0.00 0.00 0.00 62 1017.7
20260831133039 80 169 1.0 3.0 0.00 0.00 0.00 66 1017.5
20260831131516 78 148 1.0 3.0 0.00 0.00 0.00 67 1017.1
20260831130020 78 183 1.0 4.0 0.00 0.00 0.00 68 1017.0
20260831124529 77 213 2.0 6.0 0.00 0.00 0.00 69 1016.7
20260831123035 77 271 1.0 4.0 0.00 0.00 0.00 70 1016.6
20260831121506 77 155 1.0 4.0 0.00 0.00 0.00 71 1016.5
20260831120015 77 243 0.0 4.0 0.00 0.00 0.00 70 1016.4
20260831114531 77 153 0.0 4.0 0.00 0.00 0.00 69 1016.4
20260831113039 78 172 0.0 3.0 0.00 0.00 0.00 69 1016.5
20260831111531 78 175 0.0 2.0 0.00 0.00 0.00 68 1016.3
20260831110008 78 198 0.0 5.0 0.00 0.00 0.00 67 1016.2
20260831104527 79 202 1.0 4.0 0.00 0.00 0.00 67 1016.2
20260831103019 79 219 1.0 5.0 0.00 0.00 0.00 66 1016.2
20260831101528 79 117 1.0 6.0 0.00 0.00 0.00 64 1016.1
20260831100040 79 141 1.0 5.0 0.00 0.00 0.00 63 1016.1
20260831094532 80 155 1.0 4.0 0.00 0.00 0.00 61 1016.1
20260831093020 80 177 1.0 5.0 0.00 0.00 0.00 60 1015.9
20260831091524 81 106 1.0 4.0 0.00 0.00 0.00 58 1015.9
20260831090030 81 115 2.0 7.0 0.00 0.00 0.00 57 1015.8
20260831084542 82 203 3.0 6.0 0.00 0.00 0.00 55 1015.7
20260831083011 82 160 2.0 4.0 0.00 0.00 0.00 54 1015.7
20260831081533 82 207 3.0 5.0 0.00 0.00 0.00 53 1015.7
20260831080033 82 206 2.0 5.0 0.00 0.00 0.00 52 1015.7